星链-33557 (STARLINK-33557)

导读 | 星芒AI

STARLINK-33557 是 SpaceX Starlink 卫星互联网项目中的一颗低轨卫星,属于第6批部署的53颗卫星之一。该卫星于2020年11月25日由猎鹰9号火箭发射升空,运行在约550公里高的近地轨道,旨在为全球提供高速互联网服务。Starlink 项目通过部署大量卫星,构建覆盖全球的宽带网络,尤其服务于偏远地区。STARLINK-33557 采用先进通信技术,支持低延迟、高带宽的数据传输,是实现全球互联网接入目标的重要组成部分。

基本信息
目录编号:
62106
目录名称:
STARLINK-33557
国际标识:
2024-220U
轨道中心:
EARTH
卫星名称:
星链-33557
卫星全名:
星链-33557 (STARLINK-33557)
卫星状态:
已陨落 最后检测时间 2025-08-14
发射日期:
2024-11-25 UTC
国别 :
美国 (US)
星等 :
--
轨道信息
数据来源 国际轨道数据
星历时间: 2025-08-14T08:46:06+0800
轨道信息已过期128天
半长轴: 6569.441km
偏心率: 0.0004724
轨道倾角: 42.914°
近地点辐角 246.845°
升交点赤经 179.285°
平近点角 207.019°
近地点: 188.202km
远地点: 194.41km
周期: 88.319分钟
每日圈数: 16.304603
详细信息
固有亮度:
5
最大亮度:
2.5
卫星平台:
Starlink V1.0
覆盖范围:
全球
运营商:
太空探索技术公司
运营商所在国:
美国
制造商(研发单位):
太空探索技术公司
制造商所在国:
美国
使用方式:
暂无
卫星简介
Starlink 计划是 SpaceX 推出的全球卫星互联网项目,通过发射低轨道卫星,为全球尤其是偏远地区提供高速、低延迟的互联网服务。自 2019 年起,Starlink 已部署数千颗卫星,旨在缩小全球数字鸿沟,推动互联网普及。该项目还为军事、航空等行业提供通信支持,带来广泛经济效益。